TimeCDT,TemperatureF,Dew PointF,Humidity,Sea Level PressureIn,VisibilityMPH,Wind Direction,Wind SpeedMPH,Gust SpeedMPH,PrecipitationIn,Events,Conditions,WindDirDegrees,DateUTC
12:56 AM,46.9,28.0,48,30.01,10.0,NW,5.8,-,N/A,,Clear,320,2013-03-21 05:56:00
1:56 AM,45.0,28.9,53,30.00,10.0,NNW,3.5,-,N/A,,Clear,330,2013-03-21 06:56:00
2:56 AM,44.1,28.9,55,30.00,10.0,West,3.5,-,N/A,,Clear,280,2013-03-21 07:56:00
3:56 AM,39.0,32.0,76,29.98,10.0,Calm,Calm,-,N/A,,Clear,0,2013-03-21 08:56:00
4:56 AM,36.0,30.9,82,29.99,10.0,NW,3.5,-,N/A,,Clear,320,2013-03-21 09:56:00
5:56 AM,37.9,30.0,73,29.99,10.0,NW,3.5,-,N/A,,Clear,310,2013-03-21 10:56:00
6:56 AM,37.9,28.9,70,30.01,10.0,NW,5.8,-,N/A,,Clear,320,2013-03-21 11:56:00
7:56 AM,42.1,28.0,58,30.04,10.0,NW,3.5,-,N/A,,Clear,320,2013-03-21 12:56:00
8:56 AM,46.0,25.0,44,30.04,10.0,North,11.5,-,N/A,,Clear,350,2013-03-21 13:56:00
9:56 AM,46.9,16.0,29,30.05,10.0,NW,11.5,-,N/A,,Clear,320,2013-03-21 14:56:00
10:56 AM,48.9,17.1,28,30.04,10.0,NNW,9.2,16.1,N/A,,Clear,340,2013-03-21 15:56:00
11:56 AM,52.0,15.1,23,30.03,10.0,NNW,11.5,20.7,N/A,,Clear,340,2013-03-21 16:56:00
12:56 PM,53.1,15.1,22,30.01,10.0,NW,10.4,16.1,N/A,,Clear,320,2013-03-21 17:56:00
1:56 PM,57.0,17.1,21,29.97,10.0,North,4.6,-,N/A,,Clear,350,2013-03-21 18:56:00
2:56 PM,60.1,19.0,20,29.95,10.0,West,9.2,17.3,N/A,,Clear,280,2013-03-21 19:56:00
3:56 PM,59.0,16.0,19,29.93,10.0,Variable,5.8,-,N/A,,Clear,0,2013-03-21 20:56:00
4:56 PM,59.0,18.0,20,29.92,10.0,West,8.1,-,N/A,,Clear,280,2013-03-21 21:56:00
5:56 PM,57.9,19.9,23,29.92,10.0,NNW,3.5,-,N/A,,Clear,330,2013-03-21 22:56:00
6:56 PM,55.9,21.9,27,29.93,10.0,NNW,3.5,-,N/A,,Clear,330,2013-03-21 23:56:00
7:56 PM,54.0,26.1,34,29.94,10.0,NNW,3.5,-,N/A,,Mostly Cloudy,340,2013-03-22 00:56:00
8:56 PM,52.0,32.0,47,29.93,10.0,Calm,Calm,-,N/A,,Mostly Cloudy,0,2013-03-22 01:56:00
9:56 PM,51.1,30.9,46,29.96,10.0,Calm,Calm,-,N/A,,Mostly Cloudy,0,2013-03-22 02:56:00
10:56 PM,50.0,30.0,46,29.94,10.0,NE,5.8,-,N/A,,Overcast,50,2013-03-22 03:56:00
11:56 PM,50.0,24.1,36,29.95,10.0,NNE,3.5,-,N/A,,Scattered Clouds,20,2013-03-22 04:56:00